Location: Shenandoah County Park
(38.9356°N, 78.4524°W)
Time: 05:08:31
(UTC-04:00)

Transit 2A - Pass Details

Date: 14 June 2024
Orbit: 591 x 960 km, 66.7° (Epoch: 23 July)

Event Time Altitude Azimuth Distance (km) Brightness Sun altitude
Rises 01:11:07 0° 345° (NNW) 3,476 10.6 -27.8°
Reaches altitude 10° 01:15:19 10° 14° (NNE) 2,606 9.7 -27.8°
Maximum altitude 01:17:53 13° 39° (NE) 2,449 9.2 -27.8°
Drops below altitude 10° 01:20:29 10° 64° (ENE) 2,664 9.1 -27.8°
Sets 01:24:51 0° 92° (E) 3,634 9.5 -27.7°
